sat.trackr.live / text

‹ back to catalog

KUIPER-00602

NORAD 69286 · 2026-118V

PAYLOAD ACTIVE UNKNOWN

§ Identity

Operator
Country
US
Launch date
2026-05-29
Launch site
AFETR
Launch vehicle
Mass (kg)
RCS (m²)

External: N2YO · Heavens-Above · Gunter

§ Orbital elements

Epoch: 2026-09-19T18:33:00.711360Z

Period
97.30 min
Inclination
51.9024°
Eccentricity
0.0000416
Mean motion
14.79933721 rev/d
Perigee alt
629.2 km
Apogee alt
629.8 km
Semi-major
7,007.7 km
B*
2.7570e-4
RAAN
334.8234°
Arg perigee
217.8588°
Mean anomaly
142.2345°
Rev number
1,827

§ Raw data

KUIPER-006021 69286U 26118V   26262.77292490  .00001881  00000+0  27570-3 0  99982 69286  51.9024 334.8234 0000416 217.8588 142.2345 14.79933721 18276

JSON: /api/v1/satellites/69286 · /tle

For live sub-satellite position, see the globe view (requires WebGL).

§ Visibility from observer

Set your observer location to see the next 7 days of passes ≥ 10°. The values pass through the URL so the page stays shareable.

No JS? Fill the form by hand. The geolocation button needs JavaScript.